K5AGY Weather Reports


Display with metric or nautical units.
time (UTC)temp
F
wind
direction
speed
MPH
gust
MPH
rain 1hr
in
rain 24hr
in
rain mn
in
humidity
%
barometer
mb
20260905184552 97 317 2.0 7.0 0.00 0.00 0.00 38 1011.7
20260905183021 99 264 0.0 6.0 0.00 0.00 0.00 36 1012.0
20260905181553 97 236 2.0 5.0 0.00 0.00 0.00 40 1012.3
20260905180025 97 207 2.0 8.0 0.00 0.00 0.00 40 1012.7
20260905174556 97 114 3.0 8.0 0.00 0.00 0.00 41 1012.8
20260905173028 93 244 1.0 7.0 0.00 0.00 0.00 46 1013.0
20260905171603 95 174 4.0 7.0 0.00 0.00 0.00 46 1013.3
20260905170031 95 143 4.0 8.0 0.00 0.00 0.00 47 1013.6
20260905164501 95 178 4.0 7.0 0.00 0.00 0.00 46 1013.6
20260905163034 95 84 4.0 12.0 0.00 0.00 0.00 47 1013.6
20260905161506 93 196 5.0 10.0 0.00 0.00 0.00 48 1013.7
20260905160034 91 102 1.0 5.0 0.00 0.00 0.00 58 1013.7
20260905154508 90 234 3.0 7.0 0.00 0.00 0.00 58 1013.8
20260905153039 89 184 2.0 7.0 0.00 0.00 0.00 62 1013.9
20260905151514 91 148 2.0 6.0 0.00 0.00 0.00 60 1013.8
20260905150038 90 167 3.0 6.0 0.00 0.00 0.00 63 1013.7
20260905144517 89 223 2.0 6.0 0.00 0.00 0.00 65 1013.8
20260905143039 88 268 1.0 4.0 0.00 0.00 0.00 68 1013.8
20260905141507 85 143 0.0 3.0 0.00 0.00 0.00 75 1013.7
20260905140043 83 86 1.0 4.0 0.00 0.00 0.00 80 1013.7
20260905134504 81 76 1.0 4.0 0.00 0.00 0.00 83 1013.6
20260905133035 80 66 0.0 0.0 0.00 0.00 0.00 86 1013.4
20260905131505 78 56 0.0 0.0 0.00 0.00 0.00 86 1013.4
20260905130040 76 56 0.0 0.0 0.00 0.00 0.00 86 1013.3
20260905124515 75 122 0.0 1.0 0.00 0.00 0.00 86 1013.2
20260905123041 75 122 0.0 1.0 0.00 0.00 0.00 85 1012.9
20260905121512 75 122 0.0 0.0 0.00 0.00 0.00 85 1012.8
20260905120046 75 122 0.0 0.0 0.00 0.00 0.00 85 1012.6
20260905114521 75 122 0.0 1.0 0.00 0.00 0.00 85 1012.7
20260905113057 75 122 0.0 0.0 0.00 0.00 0.00 85 1012.5
20260905111533 75 122 0.0 0.0 0.00 0.00 0.00 85 1012.5
20260905110104 75 122 0.0 1.0 0.00 0.00 0.00 85 1012.3
20260905104532 75 122 0.0 0.0 0.00 0.00 0.00 85 1012.1
20260905103004 75 122 0.0 0.0 0.00 0.00 0.00 85 1012.1
20260905101538 75 122 0.0 1.0 0.00 0.00 0.00 84 1012.1
20260905100007 75 122 0.0 0.0 0.00 0.00 0.00 84 1012.0
20260905094543 75 122 0.0 0.0 0.00 0.00 0.00 84 1012.0
20260905093012 76 122 0.0 1.0 0.00 0.00 0.00 84 1011.8
20260905091544 76 122 0.0 0.0 0.00 0.00 0.00 84 1012.1
20260905090022 76 122 0.0 0.0 0.00 0.00 0.00 83 1012.1
20260905084544 77 122 0.0 0.0 0.00 0.00 0.00 83 1012.0
20260905083014 77 122 0.0 0.0 0.00 0.00 0.00 83 1012.0
20260905081544 77 122 0.0 0.0 0.00 0.00 0.00 82 1012.1
20260905080014 78 122 0.0 0.0 0.00 0.00 0.00 82 1012.2
20260905074547 78 122 0.0 0.0 0.00 0.00 0.00 81 1012.4
20260905073017 79 122 0.0 0.0 0.00 0.00 0.00 81 1012.5
20260905071545 79 122 0.0 1.0 0.00 0.00 0.00 81 1012.8
20260905070119 79 122 0.0 1.0 0.00 0.00 0.00 81 1012.9
20260905064551 79 129 0.0 1.0 0.00 0.00 0.00 80 1012.9
20260905063020 79 160 0.0 1.0 0.00 0.00 0.00 80 1012.9
20260905061555 80 160 0.0 2.0 0.00 0.00 0.00 79 1012.9
20260905060021 80 120 0.0 1.0 0.00 0.00 0.00 79 1012.9
20260905054554 81 113 1.0 4.0 0.00 0.00 0.00 78 1012.9
20260905053022 81 121 0.0 2.0 0.00 0.00 0.00 77 1013.0
20260905051551 81 162 1.0 5.0 0.00 0.00 0.00 77 1012.8
20260905050018 82 125 0.0 4.0 0.00 0.00 0.00 75 1012.9
20260905044553 82 143 1.0 8.0 0.00 0.00 0.00 75 1013.0
20260905043024 82 105 2.0 6.0 0.00 0.00 0.00 74 1013.0
20260905041559 83 148 3.0 9.0 0.00 0.00 0.00 73 1013.0
20260905040031 83 104 4.0 8.0 0.00 0.00 0.00 72 1012.9
20260905034616 83 96 3.0 7.0 0.00 0.00 0.00 71 1012.9
20260905033030 84 102 3.0 9.0 0.00 0.00 0.00 70 1012.7
20260905031503 84 103 4.0 9.0 0.00 0.00 0.00 69 1012.7
20260905030034 84 117 4.0 10.0 0.00 0.00 0.00 68 1012.8
20260905024505 85 113 3.0 8.0 0.00 0.00 0.00 66 1012.5
20260905023038 85 110 4.0 9.0 0.00 0.00 0.00 65 1012.2
20260905021514 85 111 4.0 9.0 0.00 0.00 0.00 64 1012.3
20260905020044 86 119 4.0 10.0 0.00 0.00 0.00 63 1012.1
20260905014520 85 94 3.0 10.0 0.00 0.00 0.00 63 1011.9
20260905013115 86 86 3.0 8.0 0.00 0.00 0.00 62 1011.7
20260905011529 86 114 4.0 7.0 0.00 0.00 0.00 61 1011.5
20260905010004 87 111 5.0 12.0 0.00 0.00 0.00 60 1011.3
20260905004558 87 103 6.0 12.0 0.00 0.00 0.00 60 1011.2
20260905003013 88 117 6.0 12.0 0.00 0.00 0.00 60 1011.0
20260905001555 90 61 6.0 15.0 0.00 0.00 0.00 54 1011.0
20260905000017 93 46 6.0 12.0 0.00 0.00 0.00 45 1010.7
20260904234556 93 109 5.0 9.0 0.00 0.00 0.00 45 1010.7
20260904233030 93 119 5.0 13.0 0.00 0.00 0.00 45 1010.7
20260904231503 94 74 6.0 13.0 0.00 0.00 0.00 45 1010.7
20260904230040 94 124 6.0 12.0 0.00 0.00 0.00 45 1010.7
20260904224513 92 115 6.0 13.0 0.00 0.00 0.00 48 1010.7
20260904223050 91 161 8.0 13.0 0.00 0.00 0.00 48 1010.9
20260904221519 91 118 8.0 15.0 0.00 0.00 0.00 49 1011.0
20260904220052 92 102 9.0 13.0 0.00 0.00 0.00 48 1011.1
20260904214524 92 94 10.0 14.0 0.00 0.00 0.00 48 1011.3
20260904213058 92 130 6.0 15.0 0.00 0.00 0.00 47 1011.4
20260904211530 92 52 7.0 15.0 0.00 0.00 0.00 47 1011.5
20260904210008 90 82 6.0 15.0 0.00 0.00 0.00 49 1011.6
20260904204539 90 101 7.0 14.0 0.00 0.00 0.00 48 1011.8
20260904203018 95 103 6.0 13.0 0.00 0.00 0.00 44 1011.9
20260904201546 97 141 3.0 7.0 0.00 0.00 0.00 39 1011.9
20260904200018 96 134 2.0 8.0 0.00 0.00 0.00 39 1012.0
20260904194603 96 122 4.0 9.0 0.00 0.00 0.00 39 1012.3
20260904193025 97 110 3.0 10.0 0.00 0.00 0.00 37 1012.4
20260904191600 97 165 5.0 11.0 0.00 0.00 0.00 38 1012.4
20260904190035 98 214 1.0 9.0 0.00 0.00 0.00 38 1012.5